Weather History for Wheeler AAF, HI

Change the Weather History Date:

Thursday, March 28, 2013

  Actual Average Record
Temperature  
Mean Temperature 70 °F -  
Max Temperature 76 °F 74 °F 80 °F (2002)
Min Temperature 64 °F 62 °F 56 °F (2012)
Cooling Degree Days 5    
Growing Degree Days 20 (Base 50)    
Moisture  
Dew Point 62 °F    
Average Humidity 81    
Maximum Humidity 92    
Minimum Humidity 59    
Precipitation  
Precipitation 0.01 in - - ()
Sea Level Pressure  
Sea Level Pressure 30.01 in    
Wind  
Wind Speed 4 mph (North)    
Max Wind Speed 15 mph    
Max Gust Speed 21 mph    
Visibility 10 miles    
Events Rain    
Averages and records for this station are not official NWS values.
T = Trace of Precipitation, MM = Missing Value Source: NWS Daily Summary

Daily Weather History Graph

Daily Weather History Graph

Search for Another Location

Airport:

Trip Planner

Search our weather history database for the weather conditions in past years. The results will help you decide how hot, cold, wet, or windy it might be!

Date:

Astronomy

Mar. 28, 2013 Rise Set
Actual Time 6:28 AM HST 6:45 PM HST
Civil Twilight 6:06 AM HST 7:08 PM HST
Nautical Twilight 5:40 AM HST 7:34 PM HST
Astronomical Twilight 5:14 AM HST 8:00 PM HST
Moon 8:30 PM HST (3/28) 7:19 AM HST (3/28)
Length of Visible Light 13h 02m
Length of Day
12h 17m
Full, 97% of the Moon is Illuminated
Mar 28
Full
Apr 2
Last Quarter
Apr 9
New
Apr 18
First Quarter
Apr 25
Full

Hourly Weather History & Observations

Time (HST) Temp. Dew Point Humidity Pressure Visibility Wind Dir Wind Speed Gust Speed Precip Events Conditions
12:02 AM 66.2 °F 62.6 °F 88% 30.02 in 10.0 mi Calm Calm - N/A   Overcast
12:14 AM 66.2 °F 62.6 °F 88% 30.02 in 10.0 mi Calm Calm - N/A   Light Drizzle
12:28 AM 66.2 °F 62.6 °F 88% 30.02 in 10.0 mi North 4.6 mph - N/A   Overcast
12:32 AM 66.2 °F 62.6 °F 88% 30.02 in 10.0 mi NNW 3.5 mph - N/A   Light Drizzle
12:40 AM 66.2 °F 62.6 °F 88% 30.02 in 10.0 mi NNW 3.5 mph - N/A   Light Drizzle
12:41 AM 66.2 °F 62.6 °F 88% 30.02 in 10.0 mi NNW 3.5 mph - N/A   Overcast
12:55 AM 65.5 °F 62.2 °F 89% 30.01 in 10.0 mi West 3.5 mph - 0.00 in   Overcast
12:56 AM 66.2 °F 62.6 °F 88% 30.02 in 10.0 mi West 4.6 mph - N/A   Overcast
1:55 AM 64.9 °F 62.4 °F 92% 30.00 in 10.0 mi NW 3.5 mph - N/A   Overcast
2:55 AM 64.8 °F 62.1 °F 91% 29.99 in 10.0 mi NW 4.6 mph - N/A   Overcast
3:55 AM 66.0 °F 62.1 °F 87% 29.98 in 10.0 mi NNW 5.8 mph - N/A   Overcast
4:11 AM 66.2 °F 62.6 °F 88% 29.98 in 10.0 mi NNW 4.6 mph - N/A   Overcast
4:12 AM 66.2 °F 62.6 °F 88% 29.98 in 10.0 mi North 4.6 mph - N/A   Overcast
4:13 AM 66.2 °F 62.6 °F 88% 29.98 in 10.0 mi North 5.8 mph - N/A   Drizzle
4:29 AM 66.2 °F 62.6 °F 88% 29.99 in 10.0 mi NNW 5.8 mph - N/A   Overcast
4:55 AM 65.5 °F 61.9 °F 88% 29.99 in 10.0 mi NNW 5.8 mph - 0.00 in   Mostly Cloudy
5:55 AM 64.9 °F 61.7 °F 89% 30.01 in 10.0 mi NW 4.6 mph - N/A   Mostly Cloudy
6:55 AM 64.2 °F 61.0 °F 89% 30.02 in 10.0 mi WNW 5.8 mph - N/A   Overcast
7:55 AM 66.7 °F 62.4 °F 86% 30.03 in 10.0 mi NNW 6.9 mph - N/A   Mostly Cloudy
8:55 AM 69.8 °F 63.0 °F 79% 30.04 in 10.0 mi North 5.8 mph - N/A   Mostly Cloudy
9:55 AM 72.3 °F 60.8 °F 67% 30.05 in 10.0 mi NE 6.9 mph - N/A   Partly Cloudy
10:55 AM 73.6 °F 60.3 °F 63% 30.04 in 10.0 mi ENE 13.8 mph - N/A   Scattered Clouds
11:55 AM 74.8 °F 60.4 °F 61% 30.03 in 10.0 mi ENE 10.4 mph - N/A   Scattered Clouds
12:55 PM 76.1 °F 61.0 °F 59% 30.00 in 10.0 mi NE 11.5 mph 20.7 mph N/A   Partly Cloudy
1:55 PM 75.4 °F 60.1 °F 59% 29.97 in 10.0 mi NE 9.2 mph - N/A   Clear
2:55 PM 75.9 °F 60.8 °F 59% 29.96 in 10.0 mi ENE 9.2 mph 20.7 mph N/A   Partly Cloudy
3:55 PM 74.8 °F 61.0 °F 62% 29.95 in 10.0 mi ENE 10.4 mph 19.6 mph N/A   Partly Cloudy
4:55 PM 73.0 °F 61.3 °F 67% 29.95 in 10.0 mi East 15.0 mph - N/A   Mostly Cloudy
5:55 PM 71.4 °F 61.0 °F 70% 29.97 in 10.0 mi ENE 10.4 mph - N/A   Clear
6:55 PM 69.1 °F 61.0 °F 75% 30.00 in 10.0 mi NE 5.8 mph - N/A   Partly Cloudy
7:55 PM 67.8 °F 61.5 °F 80% 30.01 in 10.0 mi Calm Calm - N/A   Clear
8:55 PM 68.2 °F 61.2 °F 78% 30.02 in 10.0 mi Calm Calm - N/A   Clear
10:28 PM 66.2 °F 60.8 °F 83% 30.04 in 10.0 mi Calm Calm - N/A   Light Drizzle
10:38 PM 66.2 °F 60.8 °F 83% 30.04 in 10.0 mi Calm Calm - N/A   Partly Cloudy
10:55 PM 65.8 °F 61.3 °F 85% 30.05 in 10.0 mi Calm Calm - 0.00 in   Partly Cloudy
10:59 PM 66.2 °F 60.8 °F 83% 30.05 in 10.0 mi Calm Calm - N/A   Partly Cloudy
11:00 PM 66.2 °F 60.8 °F 83% 30.05 in 10.0 mi Calm Calm - N/A   Drizzle
11:08 PM 66.2 °F 60.8 °F 83% 30.04 in 10.0 mi NE 3.5 mph - N/A   Light Drizzle
11:21 PM 64.4 °F 60.8 °F 88% 30.04 in 10.0 mi NW 3.5 mph - N/A   Clear
11:40 PM 64.4 °F 60.8 °F 88% 30.04 in 9.0 mi Calm Calm - N/A Rain Light Rain
11:59 PM 66.2 °F 62.6 °F 88% 30.04 in 10.0 mi NW 3.5 mph - N/A   Scattered Clouds